This is the latest recevied weather packets stored in our database for station/object EB1TK-13. If no packets are shown the sender has not sent any weather packets the latest 10 day(s).
| Time | Temp. | Humidity | Pressure | Rain* | Wind** | Luminosity | Snow |
|---|---|---|---|---|---|---|---|
| 1777839735 | 12.78° C | 96% | 1013.8 hPa | 0.25 mm | - | - | - |
| 1777839136 | 12.78° C | 96% | 1013.7 hPa | 0 mm | - | - | - |
| 1777838536 | 12.78° C | 96% | 1013.5 hPa | 0 mm | - | - | - |
| 1777836737 | 12.78° C | 96% | 1013.2 hPa | 0.25 mm | - | - | - |
| 1777836135 | 12.78° C | 96% | 1013.1 hPa | 0.25 mm | - | - | - |
| 1777834936 | 13.33° C | 97% | 1013 hPa | 0.25 mm | - | - | - |
| 1777833737 | 12.78° C | 96% | 1012.8 hPa | 0.25 mm | - | - | - |
| 1777833139 | 12.78° C | 96% | 1012.8 hPa | 0.25 mm | - | - | - |
| 1777832537 | 12.78° C | 96% | 1012.8 hPa | 0.25 mm | - | - | - |
| 1777831935 | 12.78° C | 96% | 1012.7 hPa | 0.25 mm | - | - | - |
| 1777831338 | 12.78° C | 96% | 1012.8 hPa | 0.51 mm | - | - | - |
| 1777828937 | 12.78° C | 96% | 1012.8 hPa | 2.03 mm | - | - | - |
| 1777827735 | 12.78° C | 96% | 1012.7 hPa | 2.29 mm | - | - | - |
| 1777825337 | 13.33° C | 95% | 1012.4 hPa | 1.52 mm | - | - | - |
| 1777824737 | 13.33° C | 95% | 1012.3 hPa | 1.52 mm | - | - | - |
| 1777824135 | 13.89° C | 95% | 1012.4 hPa | 1.52 mm | - | - | - |
| 1777822936 | 13.89° C | 95% | 1012.3 hPa | 1.02 mm | - | - | - |
| 1777822336 | 13.89° C | 95% | 1012.3 hPa | 1.02 mm | - | - | - |
| 1777821137 | 13.89° C | 95% | 1012.4 hPa | 0.51 mm | - | - | - |
| 1777820537 | 13.89° C | 94% | 1012.3 hPa | 0.51 mm | - | - | - |
| 1777819935 | 13.89° C | 94% | 1012.2 hPa | 0.51 mm | - | - | - |
| 1777818136 | 14.44° C | 94% | 1012.3 hPa | 0.51 mm | - | - | - |
| 1777817537 | 14.44° C | 94% | 1012.4 hPa | 0.51 mm | - | - | - |
| 1777814536 | 14.44° C | 92% | 1012.4 hPa | 0 mm | - | - | - |
| 1777813936 | 14.44° C | 91% | 1012.5 hPa | 0 mm | - | - | - |
* Rain latest hour (hover to see other rain measurements)
** Current wind speed in m/s (hover to see current wind gust speed)